This is the latest recevied weather packets stored in our database for station/object PP5ABU-13. If no packets are shown the sender has not sent any weather packets the latest 10 day(s).
| Time | Temp. | Humidity | Pressure | Rain* | Wind** | Luminosity | Snow |
|---|---|---|---|---|---|---|---|
| 1777992304 | 26.11° C | 75% | 1016.6 hPa | 0 mm | - | - | - |
| 1777991404 | 25° C | 77% | 1016.6 hPa | 0 mm | - | - | - |
| 1777990504 | 25° C | 76% | 1017 hPa | 0 mm | - | - | - |
| 1777989604 | 24.44° C | 78% | 1016.9 hPa | 0 mm | - | - | - |
| 1777988704 | 24.44° C | 78% | 1016.7 hPa | 0 mm | - | - | - |
| 1777987804 | 23.89° C | 78% | 1016.9 hPa | 0 mm | - | - | - |
| 1777986904 | 23.89° C | 80% | 1016.9 hPa | 0 mm | - | - | - |
| 1777986004 | 23.33° C | 83% | 1016.9 hPa | 0 mm | - | - | - |
| 1777985104 | 22.22° C | 85% | 1016.6 hPa | 0 mm | - | - | - |
| 1777984204 | 22.22° C | 90% | 1016.5 hPa | 0 mm | - | - | - |
| 1777983304 | 21.67° C | 92% | 1016.4 hPa | 0 mm | - | - | - |
| 1777982404 | 21.11° C | 94% | 1016.4 hPa | 0 mm | - | - | - |
| 1777981504 | 21.11° C | 96% | 1016.4 hPa | 0 mm | - | - | - |
| 1777980604 | 20.56° C | 99% | 1016.3 hPa | 0 mm | - | - | - |
| 1777979704 | 20.56° C | 99% | 1016.1 hPa | 0 mm | - | - | - |
| 1777978804 | 20° C | 99% | 1016 hPa | 0 mm | - | - | - |
| 1777977904 | 20° C | 99% | 1015.8 hPa | 0 mm | - | - | - |
| 1777977004 | 20° C | 99% | 1015.7 hPa | 0 mm | - | - | - |
| 1777976104 | 19.44° C | 99% | 1015.5 hPa | 0 mm | - | - | - |
| 1777975204 | 19.44° C | 99% | 1015.4 hPa | 0 mm | - | - | - |
| 1777974304 | 19.44° C | 99% | 1015.4 hPa | 0 mm | - | - | - |
| 1777973404 | 19.44° C | 99% | 1015.3 hPa | 0 mm | - | - | - |
| 1777972506 | 19.44° C | 99% | 1015.2 hPa | 0 mm | - | - | - |
| 1777971605 | 19.44° C | 99% | 1014.9 hPa | 0 mm | - | - | - |
| 1777970704 | 19.44° C | 99% | 1014.9 hPa | 0 mm | - | - | - |
* Rain latest hour (hover to see other rain measurements)
** Current wind speed in m/s (hover to see current wind gust speed)